Location: Aragoneses
(41.0275°N, 4.3847°W)
Time: 17:25:28
(UTC+00:00)

SPOT 1/Viking Rocket - Pass Details

Date: 14 March 2026
Orbit: 773 x 789 km, 98.2° (Epoch: 18 April)

Event Time Altitude Azimuth Distance (km) Brightness Sun altitude
Rises 18:55:56 0° 186° (S) 3,246 6.8 -7.0°
Reaches altitude 10° 18:58:23 10° 194° (SSW) 2,325 6.1 -7.5°
Maximum altitude 19:03:09 38° 263° (W) 1,172 5.2 -8.4°
Drops below altitude 10° 19:07:59 10° 331° (NNW) 2,351 6.5 -9.3°
Sets 19:10:29 0° 339° (NNW) 3,286 7.1 -9.8°
